Regional Weather Roundup
Issued by NWS

Home | Current Version | Previous Version | Graphics & Text | Print | Product List | Glossary On
Versions: 1 2 3 4 5 6 7 8 9 10 11 12 13 14 15 16 17 18 19 20 21 22 23 24 25 26 27 28 29 30 31 32 33 34 35 36 37 38 39 40 41 42 43 44 45 46 47 48 49 50
608
ASUS43 KDTX 231201
RWRMI
MICHIGAN HOURLY REGIONAL WEATHER ROUNDUP
NATIONAL WEATHER SERVICE DETROIT/PONTIAC MI
700 AM EST FRI FEB 23 2018

NOTE: "FAIR" INDICATES FEW OR NO CLOUDS BELOW 12,000 FEET WITH NO
SIGNIFICANT WEATHER AND/OR OBSTRUCTION TO VISIBILITY.

MIZ047>049-052>055-059>063-066>070-074>076-081>083-231300-
SOUTHEAST LOWER MICHIGAN

CITY           SKY/WX    TMP DP  RH WIND       PRES   REMARKS
ADRIAN         CLOUDY    34  33  96 SE7       30.20F FOG     WCI  28
6HR MIN TEMP:  32; 6HR MAX TEMP:  34; 6HR PCP: TRACE;

ALMA           FOG       33  33 100 SE7       30.17F VSB 1   WCI  26
6HR MIN TEMP:  31; 6HR MAX TEMP:  33;

ANN ARBOR      CLOUDY    35  35 100 E5        30.21F FOG     WCI  31
BAD AXE        CLOUDY    32  32  99 SE10G16   30.21F FOG     WCI  24
6HR MIN TEMP:  31; 6HR MAX TEMP:  32;

CARO           CLOUDY    33  33 100 SE9       30.20S FOG     WCI  25
DETROIT CITY   CLOUDY    35  34  96 SE6       30.25F FOG     WCI  30
6HR MIN TEMP:  34; 6HR MAX TEMP:  35;

DETROIT        LGT RAIN  36  35  96 SE7       30.22F FOG     WCI  30
6HR MIN TEMP:  35; 6HR MAX TEMP:  36; 6HR PCP: TRACE;

FLINT          CLOUDY    34  33  96 SE10      30.20F FOG     WCI  26
6HR MIN TEMP:  31; 6HR MAX TEMP:  34;

GROSSE ILE     LGT RAIN  35  35  98 SE6       30.23F WCI  30
6HR MIN TEMP:  34; 6HR MAX TEMP:  36;

HILLSDALE      FOG       34  32  93 SE9       30.16F VSB 1/2 WCI  26
HOWELL         CLOUDY    34  34 100 SE12      30.17F FOG     WCI  26
6HR MIN TEMP:  32; 6HR MAX TEMP:  34;


CITY           SKY/WX    TMP DP  RH WIND       PRES   REMARKS
JACKSON        CLOUDY    35  35 100 SE9       30.16F FOG     WCI  28
6HR MIN TEMP:  34; 6HR MAX TEMP:  35;

LAMBERTVILLE   MIX PCPN  35  34  96 E3        30.21F
6HR MIN TEMP:  33; 6HR MAX TEMP:  35;

LANSING        CLOUDY    35  34  96 SE9       30.16F WCI  28
6HR MIN TEMP:  32; 6HR MAX TEMP:  35;

LAPEER         CLOUDY    34  33  99 SE9       30.22R FOG     WCI  26
6HR MIN TEMP:  32; 6HR MAX TEMP:  34;

MASON          CLOUDY    36  33  87 SE12      30.16F FOG     WCI  28
6HR MIN TEMP:  34; 6HR MAX TEMP:  36;

MT. CLEMENS    MIX PCPN  34  34 100 SE9       30.24S WCI  27
6HR MIN TEMP:  33; 6HR MAX TEMP:  34; 6HR PCP: TRACE;

PONTIAC        DRZL/FOG  34  34 100 SE13      30.19F VSB 1/4 WCI  25
6HR MIN TEMP:  31; 6HR MAX TEMP:  34; 6HR PCP: TRACE;

PORT HOPE        N/A     33  31  92 SE18      30.20F WCI  22
6HR MIN TEMP:  32; 6HR MAX TEMP:  33;

PORT HURON     CLOUDY    34  32  93 SE9       30.26R FOG     WCI  26
TRI CITIES     FOG       33  32  96 SE10      30.19F VSB 3/4 WCI  25
6HR MIN TEMP:  31; 6HR MAX TEMP:  33;

MIDLAND        CLOUDY    33  32  97 SE5       30.18F FOG     WCI  28
6HR MIN TEMP:  31; 6HR MAX TEMP:  33;

TROY           CLOUDY    35  34  96 E6        30.25F FOG     WCI  30
SAGINAW HB     CLOUDY    32  32 100 SE9       30.19F FOG     WCI  24
$$
MIZ043>046-050>051-056>058-064>065-071>073-077>080-231300-
SOUTHWEST LOWER MICHIGAN

CITY           SKY/WX    TMP DP  RH WIND       PRES   REMARKS
BATTLE CREEK   CLOUDY    37  35  92 SE9       30.14F WCI  30
6HR MIN TEMP:  35; 6HR MAX TEMP:  37;

BENTON HARBOR  LGT RAIN  39  36  89 SE10      30.11F FOG     WCI  32
6HR MIN TEMP:  37; 6HR MAX TEMP:  39; 6HR PCP:  0.09;

BIG RAPIDS     MIX PCPN  32  30  92 SE10G16   30.13S WCI  24
6HR MIN TEMP:  30; 6HR MAX TEMP:  32;

COLDWATER      CLOUDY    36  36 100 SE7       30.15F FOG     WCI  30
6HR MIN TEMP:  34; 6HR MAX TEMP:  36;

FREMONT        MIX PCPN  32  30  92 SE8       30.12F WCI  25
6HR MIN TEMP:  31; 6HR MAX TEMP:  32;

HOLLAND        LGT RAIN  37  35  92 SE9       30.11F FOG     WCI  30
6HR MIN TEMP:  36; 6HR MAX TEMP:  37; 6HR PCP:  0.05;

GRAND RAPIDS   LGT RAIN  36  34  92 SE9       30.13F FOG     WCI  29
6HR MIN TEMP:  33; 6HR MAX TEMP:  36; 6HR PCP: TRACE;

IONIA          CLOUDY    34  34 100 SE7       30.15F FOG     WCI  28
6HR MIN TEMP:  32; 6HR MAX TEMP:  34;

KALAMAZOO      LGT RAIN  37  35  92 SE7       30.14F FOG     WCI  32
6HR MIN TEMP:  36; 6HR MAX TEMP:  37; 6HR PCP: TRACE;

LUDINGTON      MIX PCPN  33  32  97 SE13      30.08F WCI  24
6HR MIN TEMP:  32; 6HR MAX TEMP:  34;

MARSHALL       LGT RAIN  35  35  99 SE8       30.14F WCI  29
6HR MIN TEMP:  33; 6HR MAX TEMP:  35;

MOUNT PLEASANT CLOUDY    32  31  98 SE8       30.16F FOG     WCI  25
6HR MIN TEMP:  31; 6HR MAX TEMP:  32;

MUSKEGON       LGT RAIN  35  32  88 SE12      30.11F FOG     WCI  27
6HR MIN TEMP:  34; 6HR MAX TEMP:  35; 6HR PCP:  0.01;

SOUTH HAVEN    LGT RAIN  38  37  94 SE8       30.11F WCI  32
$$
MIZ016>042-231300-
NORTHERN LOWER MICHIGAN

CITY           SKY/WX    TMP DP  RH WIND       PRES   REMARKS
ALPENA         CLOUDY    32  30  92 SE12      30.18F WCI  23
6HR MIN TEMP:  30; 6HR MAX TEMP:  32;

BEAVER ISLAND  MIX PCPN  30  27  87 E13       30.08F WCI  20
6HR MIN TEMP:  28; 6HR MAX TEMP:  31;

BELLAIRE       CLOUDY    34  32  92 S8        30.08F WCI  27
6HR MIN TEMP:  32; 6HR MAX TEMP:  34;

CADILLAC       CLOUDY    30  30  99 SE15G21   30.08F FOG     WCI  19
CHARLEVOIX     CLOUDY    34  30  85 SE12      30.08F WCI  25
6HR MIN TEMP:  30; 6HR MAX TEMP:  34;

FRANKFORT      CLOUDY    37  33  87 S13G20    30.06F WCI  28
GAYLORD        CLOUDY    29  29 100 SE12      30.08F FOG     WCI  19
6HR MIN TEMP:  26; 6HR MAX TEMP:  29;

GRAYLING       CLOUDY    30  30 100 SE10      30.09F FOG     WCI  21
HARBOR SPRINGS CLOUDY    30  26  86 E12       30.09F WCI  20
HOUGHTON LAKE  CLOUDY    31  29  92 SE12G21   30.12F FOG     WCI  22
6HR MIN TEMP:  28; 6HR MAX TEMP:  31;

MANISTEE       LGT RAIN  33  31  92 SE10G16   30.08F FOG     WCI  25
OSCODA         CLOUDY    32  31  94 S10G17    30.20F FOG     WCI  24
6HR MIN TEMP:  32; 6HR MAX TEMP:  32;

PELLSTON       CLOUDY    30  26  85 SE12      30.10F WCI  20
6HR MIN TEMP:  27; 6HR MAX TEMP:  30;

ROGERS CITY    CLOUDY    32  29  88 SE8       30.17F WCI  25
TRAVERSE CITY  CLOUDY    35  30  82 S10G20    30.07F WCI  27
6HR MIN TEMP:  34; 6HR MAX TEMP:  35;

$$
MIZ007>008-015-231300-
EASTERN UPPER MICHIGAN

CITY           SKY/WX    TMP DP  RH WIND       PRES   REMARKS
KINROSS        LGT SNOW  25  22  88 E20       30.12F FOG     WCI  11
6HR MIN TEMP:  23; 6HR MAX TEMP:  25; 6HR PCP: TRACE;

MACKINAC ISLAN CLOUDY    31  29  94 E17G26    30.09F WCI  19
6HR MIN TEMP:  27; 6HR MAX TEMP:  31;

NEWBERRY       CLOUDY    28  27  97 SE10      30.07F WCI  19
6HR MIN TEMP:  25; 6HR MAX TEMP:  28;

S. S. MARIE    CLOUDY    28  21  75 E10G20    30.13F WCI  19
6HR MIN TEMP:  24; 6HR MAX TEMP:  28;

MUNISING         N/A     26  26 100 CALM      30.12F
6HR MIN TEMP:  26; 6HR MAX TEMP:  27; 6HR PCP:  0.12;

$$
MIZ004>006-011>014-085-231300-
CENTRAL UPPER MICHIGAN

CITY           SKY/WX    TMP DP  RH WIND       PRES   REMARKS
MANISTIQUE     LGT SNOW  28  27  94 SE9       30.10S WCI  19
6HR MIN TEMP:  26; 6HR MAX TEMP:  28; 6HR PCP:  0.05;

ESCANABA       LGT SNOW  31  29  92 SE5       30.10F FOG     WCI  26
6HR MIN TEMP:  28; 6HR MAX TEMP:  31; 6HR PCP:  0.07;

MENOMINEE      LGT SNOW  32  31  96 S3        30.08  FOG
6HR MIN TEMP:  31; 6HR MAX TEMP:  32; 6HR PCP:  0.37;

SAWYER-GWINN   LGT SNOW  25  23  93 SE6       30.06F WCI  18
$$
MIZ001>003-009>011-084-231300-
WESTERN UPPER MICHIGAN

CITY           SKY/WX    TMP DP  RH WIND       PRES   REMARKS
IRON MOUNTAIN  SNOW      29  26  89 CALM      30.04F VSB 1/2
6HR MIN TEMP:  25; 6HR MAX TEMP:  29; 6HR PCP:  0.18;

HOUGHTON       SNOW      26  22  84 E15       30.02F VSB 1/2 WCI  14
6HR MIN TEMP:  25; 6HR MAX TEMP:  27; 6HR PCP:  0.21;

COPPER HARBOR    N/A     28  25  88 VRB6      30.07F WCI  22
6HR MIN TEMP:  27; 6HR MAX TEMP:  29; 6HR PCP:  0.32;

IRONWOOD       LGT SNOW  24  23  96 CALM      30.00S FOG
6HR MIN TEMP:  24; 6HR MAX TEMP:  25; 6HR PCP:  0.04;

$$

ABBREVIATIONS USED IN REMARKS
   TC - TEMPERATURE IN CELSIUS
  WCI - WIND CHILL INDEX
   HX - HEAT INDEX
  VSB - VISIBILITY





USA.gov is the U.S. government's official web portal to all federal, state and local government web resources and services.